Location: Harwich
(41.6860°N, 70.0760°W)
Time: 21:31:31
(UTC-04:00)

Cosmos 2228 - Visible Passes

Search period start: 29 September 2016 00:00
Search period end: 09 October 2016 00:00
Orbit: 592 x 619 km, 82.5° (Epoch: 29 September)

Date Brightness Start Highest point End Pass type
(mag) Time Alt. Az. Time Alt. Az. Time Alt. Az.
29 Sep 3.9 04:33:13 10° N 04:37:32 51° E 04:41:46 10° SSE visible
30 Sep 3.0 04:46:16 10° N 04:50:40 88° E 04:55:01 10° S visible
30 Sep 6.3 18:55:10 10° WSW 18:57:32 14° WNW 18:59:54 10° NW visible
01 Oct 6.1 03:23:34 10° NE 03:25:48 14° ENE 03:28:02 10° E visible
01 Oct 3.1 04:59:28 10° NNW 05:03:45 53° W 05:07:59 10° S visible
02 Oct 5.4 03:35:43 10° NNE 03:39:09 22° ENE 03:41:48 13° ESE visible
02 Oct 3.7 05:12:53 10° NNW 05:16:46 31° W 05:18:12 25° SW visible
03 Oct 4.8 03:48:21 10° N 03:51:09 29° NE 03:51:09 29° NE visible
03 Oct 4.8 05:26:37 10° NW 05:27:52 15° NW 05:27:52 15° NW visible
04 Oct 5.3 04:01:15 10° N 04:02:24 18° N 04:02:24 18° N visible
